Вернуться в каталог

THORAD AGENA D DEB

АктивенLEO
NORAD 4432·DEBRIS·🇺🇸 United States

Запущен Sep 30, 1969 с Vandenberg Space Force Base

Loading…

Ближайшие Пролёты (ближайшие 24 часа)

TLE

СвежийSource: Space-Track

Эпоха: Sep 13, 2026, 23:14 UTC

1 04432U 69082ED  26256.96831292  .00000286  00000-0  13013-3 0  9996
2 04432  69.9751  97.5674 0051976  11.0094 349.2154 14.30528905947783

Отслеживайте THORAD AGENA D DEB в реальном времени с AllMySat

Download on the App Store